This is the latest recevied weather packets stored in our database for station/object DL9GRB-13. If no packets are shown the sender has not sent any weather packets the latest 1 day(s).
| Time | Temp. | Humidity | Pressure | Rain* | Wind** | Luminosity | Snow |
|---|---|---|---|---|---|---|---|
| 1777999208 | 14.44° C | 56% | 1009.2 hPa | 0 mm | 8.94 m/s, 63° | 77 W/m² | - |
| 1777999028 | 14.44° C | 57% | 1009.2 hPa | 0 mm | 5.81 m/s, 292° | 73 W/m² | - |
| 1777998848 | 14.44° C | 56% | 1009.1 hPa | 0 mm | 1.79 m/s, 120° | 110 W/m² | - |
| 1777998668 | 14.44° C | 57% | 1009.3 hPa | 0 mm | 2.68 m/s, 225° | 114 W/m² | - |
| 1777998488 | 14.44° C | 57% | 1009.2 hPa | 0 mm | 6.71 m/s, 21° | 118 W/m² | - |
| 1777998308 | 14.44° C | 58% | 1009.2 hPa | 0 mm | 3.13 m/s, 334° | 93 W/m² | - |
| 1777998128 | 14.44° C | 58% | 1009.3 hPa | 0 mm | 0 m/s | 126 W/m² | - |
| 1777997948 | 14.44° C | 57% | 1009.3 hPa | 0 mm | 4.02 m/s, 115° | 131 W/m² | - |
| 1777997768 | 14.44° C | 58% | 1009.2 hPa | 0 mm | 4.02 m/s, 43° | 133 W/m² | - |
| 1777997588 | 14.44° C | 60% | 1009.3 hPa | 0 mm | 3.58 m/s, 32° | 138 W/m² | - |
| 1777997408 | 14.44° C | 59% | 1009.2 hPa | 0 mm | 4.92 m/s, 18° | 112 W/m² | - |
| 1777997228 | 14.44° C | 57% | 1009.4 hPa | 0 mm | 6.71 m/s, 116° | 126 W/m² | - |
| 1777997048 | 14.44° C | 58% | 1009.2 hPa | 0 mm | 4.02 m/s, 9° | 110 W/m² | - |
| 1777996868 | 14.44° C | 57% | 1009.3 hPa | 0 mm | 7.6 m/s, 95° | 136 W/m² | - |
| 1777996688 | 15° C | 57% | 1009.3 hPa | 0 mm | 7.15 m/s, 21° | 105 W/m² | - |
| 1777996508 | 15° C | 58% | 1009.1 hPa | 0 mm | 5.81 m/s, 3° | 154 W/m² | - |
| 1777996328 | 15° C | 57% | 1009.3 hPa | 0 mm | 1.79 m/s, 220° | 170 W/m² | - |
| 1777996148 | 15° C | 57% | 1009 hPa | 0 mm | 6.26 m/s, 84° | 175 W/m² | - |
| 1777995968 | 15° C | 58% | 1009.2 hPa | 0 mm | 2.24 m/s, 136° | 190 W/m² | - |
| 1777995788 | 15° C | 59% | 1009.3 hPa | 0 mm | 4.92 m/s, 103° | 205 W/m² | - |
| 1777995608 | 15° C | 60% | 1009.3 hPa | 0 mm | 4.47 m/s, 93° | 237 W/m² | - |
| 1777995428 | 14.44° C | 61% | 1009 hPa | 0 mm | 3.13 m/s, 302° | 249 W/m² | - |
| 1777995248 | 14.44° C | 63% | 1009.2 hPa | 0 mm | 3.13 m/s, 67° | 281 W/m² | - |
| 1777995068 | 14.44° C | 62% | 1009.2 hPa | 0 mm | 5.36 m/s, 45° | 293 W/m² | - |
| 1777994888 | 14.44° C | 68% | 1009.2 hPa | 0 mm | 10.28 m/s, 61° | 317 W/m² | - |
* Rain latest hour (hover to see other rain measurements)
** Current wind speed in m/s (hover to see current wind gust speed)